Regional Weather Roundup
Issued by NWS

Home | Current Version | Previous Version | Graphics & Text | Print | Product List | Glossary On
Versions: 1 2 3 4 5 6 7 8 9 10 11 12 13 14 15 16 17 18 19 20 21 22 23 24 25 26 27 28 29 30 31 32 33 34 35 36 37 38 39 40 41 42 43 44 45 46 47 48 49 50
000
ASUS45 KCYS 220910
RWRWY

WYOMING REGIONAL WEATHER ROUNDUP
NATIONAL WEATHER SERVICE CHEYENNE WY
200 AM MST WED FEB 22 2017

NOTE:  "FAIR" INDICATES FEW OR NO CLOUDS BELOW 12,000 FEET
WITH NO SIGNIFICANT WEATHER AND/OR OBSTRUCTIONS TO VISIBILITY.

WYZ001-221000-
YELLOWSTONE NATIONAL PARK

CITY           SKY/WX    TMP DP  RH WIND       PRES   REMARKS
LK YELLOWSTONE   N/A     20  18  92 W3        29.87S
W YELLOWSTONE  NOT AVBL

$$
WYZ002>013-054>058-071-098>099-221000-
NORTHERN WYOMING

CITY           SKY/WX    TMP DP  RH WIND       PRES   REMARKS
JACKSON        CLOUDY    30  21  69 SW21      29.91S WCI  17
CODY           FAIR      36  22  56 SW17G25   29.81S WCI  26
GREYBULL       FAIR      39  25  57 W6        29.79S WCI  35
WORLAND        FAIR      31  25  78 CALM      29.80S
SHERIDAN       FAIR      45  19  35 SW29G37   29.70F
BUFFALO        FAIR      43  18  36 W17       29.76S
GILLETTE       FAIR      42  33  70 SW14      29.73R
HULETT         FAIR      43  32  65 SW13      29.74R
NEWCASTLE      FAIR      37  34  87 SE3       29.80R

$$
WYZ014>020-022>026-101>103-221000-
CENTRAL WYOMING

CITY           SKY/WX    TMP DP  RH WIND       PRES   REMARKS
BIG PINEY      CLOUDY    24  19  81 SW10      29.96S WCI  14
PINEDALE       CLOUDY    27  23  86 CALM      29.96S
DUBOIS         FAIR      23  16  74 NW14G22   29.85R WCI  11
LANDER         NOT AVBL
RIVERTON       FAIR      32  25  75 SW10      29.89R WCI  24
CASPER         CLOUDY    37  30  75 SW17G26   29.85F WCI  27
DOUGLAS        CLOUDY    41  28  60 W13       29.83F

$$
WYZ021-027>030-104>119-221000-
SOUTHERN WYOMING

CITY           SKY/WX    TMP DP  RH WIND       PRES   REMARKS
EVANSTON       LGT SNOW  27  24  89 CALM      30.00S FOG
FORT BRIDGER   LGT SNOW  28  28 100 W8        30.04S WCI  19
ROCK SPRINGS   CLOUDY    28  25  88 W16       30.00F WCI  16
DIXON          LGT SNOW  30  29  96 CALM      30.05S
RAWLINS        FLURRIES  29  25  85 SW13      29.97R WCI  19
SARATOGA       LGT SNOW  28  28 100 S9        30.00F WCI  20
LARAMIE        CLOUDY    32  23  69 NW14      29.94S WCI  22
CHEYENNE       FAIR      38  29  70 NW17G26   29.90R WCI  28
TORRINGTON     FAIR      42  31  64 NW15      29.85R
PINE BLUFFS    FAIR      43  32  65 NW25G38   29.89R

$$



USA.gov is the U.S. government's official web portal to all federal, state and local government web resources and services.